Time,TemperatureF,DewpointF,PressureIn,WindDirection,WindDirectionDegrees,WindSpeedMPH,WindSpeedGustMPH,Humidity,HourlyPrecipIn,Conditions,Clouds,dailyrainin,SoftwareType,DateUTC
2013-05-31 00:05:00,72.3,69.8,30.11,NNE,30,0.0,0.0,92,0.00,,,0.00,Wunderground v.1.15,2013-05-31 04:05:00,
2013-05-31 00:10:00,72.2,70.1,30.11,NNE,22,0.0,0.0,93,0.00,,,0.00,Wunderground v.1.15,2013-05-31 04:10:00,
2013-05-31 00:20:00,72.1,70.0,30.11,NE,46,0.0,0.0,93,0.00,,,0.00,Wunderground v.1.15,2013-05-31 04:20:00,
2013-05-31 00:25:00,72.1,70.0,30.11,NE,47,0.0,0.0,93,0.00,,,0.00,Wunderground v.1.15,2013-05-31 04:25:00,
2013-05-31 00:30:00,72.0,69.9,30.11,NE,47,0.0,0.0,93,0.00,,,0.00,Wunderground v.1.15,2013-05-31 04:30:00,
2013-05-31 00:35:00,72.0,69.9,30.12,NE,47,0.0,0.0,93,0.00,,,0.00,Wunderground v.1.15,2013-05-31 04:35:00,
2013-05-31 00:40:00,72.0,69.9,30.12,NE,47,0.0,0.0,93,0.00,,,0.00,Wunderground v.1.15,2013-05-31 04:40:00,
2013-05-31 00:50:00,71.8,69.7,30.12,NE,47,0.0,0.0,93,0.00,,,0.00,Wunderground v.1.15,2013-05-31 04:50:00,
2013-05-31 00:55:00,71.7,69.9,30.11,NE,47,0.0,0.0,94,0.00,,,0.00,Wunderground v.1.15,2013-05-31 04:55:00,
2013-05-31 01:05:00,71.5,69.7,30.11,NE,47,0.0,0.0,94,0.00,,,0.00,Wunderground v.1.15,2013-05-31 05:05:00,
2013-05-31 01:15:00,71.3,69.5,30.11,NE,47,0.0,0.0,94,0.00,,,0.00,Wunderground v.1.15,2013-05-31 05:15:00,
2013-05-31 01:20:00,71.2,69.4,30.11,North,5,0.0,0.0,94,0.00,,,0.00,Wunderground v.1.15,2013-05-31 05:20:00,
2013-05-31 01:30:00,71.2,69.4,30.10,NE,38,0.0,0.0,94,0.00,,,0.00,Wunderground v.1.15,2013-05-31 05:30:00,
2013-05-31 01:35:00,71.2,69.4,30.10,East,80,0.0,0.0,94,0.00,,,0.00,Wunderground v.1.15,2013-05-31 05:35:00,
2013-05-31 01:45:00,71.2,69.4,30.09,East,91,0.0,0.0,94,0.00,,,0.00,Wunderground v.1.15,2013-05-31 05:45:00,
2013-05-31 01:50:00,71.3,69.5,30.09,NNE,27,0.0,0.0,94,0.00,,,0.00,Wunderground v.1.15,2013-05-31 05:50:00,
2013-05-31 02:00:00,71.3,69.5,30.08,ENE,61,0.0,0.0,94,0.00,,,0.00,Wunderground v.1.15,2013-05-31 06:00:00,
2013-05-31 02:05:00,71.3,69.5,30.08,NE,50,0.0,0.0,94,0.00,,,0.00,Wunderground v.1.15,2013-05-31 06:05:00,
2013-05-31 02:15:00,71.3,69.5,30.08,NE,34,0.0,0.0,94,0.00,,,0.00,Wunderground v.1.15,2013-05-31 06:15:00,
2013-05-31 02:20:00,71.3,69.2,30.08,North,5,0.0,1.0,93,0.00,,,0.00,Wunderground v.1.15,2013-05-31 06:20:00,
2013-05-31 02:30:00,71.3,69.2,30.07,ENE,70,0.0,0.0,93,0.00,,,0.00,Wunderground v.1.15,2013-05-31 06:30:00,
2013-05-31 02:40:00,71.3,69.2,30.08,NE,44,0.0,0.0,93,0.00,,,0.00,Wunderground v.1.15,2013-05-31 06:40:00,
2013-05-31 02:45:00,71.3,69.2,30.08,NE,40,0.0,0.0,93,0.00,,,0.00,Wunderground v.1.15,2013-05-31 06:45:00,
2013-05-31 02:50:00,71.3,69.2,30.07,North,5,0.0,0.0,93,0.00,,,0.00,Wunderground v.1.15,2013-05-31 06:50:00,
2013-05-31 03:00:00,71.3,69.2,30.07,East,89,0.0,0.0,93,0.00,,,0.00,Wunderground v.1.15,2013-05-31 07:00:00,
2013-05-31 03:10:00,71.3,68.9,30.07,NNE,30,0.0,0.0,92,0.00,,,0.00,Wunderground v.1.15,2013-05-31 07:10:00,
2013-05-31 03:15:00,71.3,68.9,30.06,NNE,30,0.0,0.0,92,0.00,,,0.00,Wunderground v.1.15,2013-05-31 07:15:00,
2013-05-31 03:20:00,71.3,68.9,30.07,East,94,0.0,0.0,92,0.00,,,0.00,Wunderground v.1.15,2013-05-31 07:20:00,
2013-05-31 03:30:00,71.4,69.0,30.07,ENE,73,0.0,0.0,92,0.00,,,0.00,Wunderground v.1.15,2013-05-31 07:30:00,
2013-05-31 03:35:00,71.4,68.6,30.07,NE,40,0.0,0.0,91,0.00,,,0.00,Wunderground v.1.15,2013-05-31 07:35:00,
2013-05-31 03:45:00,71.3,68.9,30.07,NE,40,0.0,0.0,92,0.00,,,0.00,Wunderground v.1.15,2013-05-31 07:45:00,
2013-05-31 03:50:00,71.2,68.8,30.06,NE,40,0.0,0.0,92,0.00,,,0.00,Wunderground v.1.15,2013-05-31 07:50:00,
2013-05-31 04:00:00,70.8,68.4,30.07,NE,40,0.0,0.0,92,0.00,,,0.00,Wunderground v.1.15,2013-05-31 08:00:00,
2013-05-31 04:10:00,70.5,68.1,30.06,NE,40,0.0,0.0,92,0.00,,,0.00,Wunderground v.1.15,2013-05-31 08:10:00,
2013-05-31 04:15:00,70.3,68.2,30.06,NE,40,0.0,0.0,93,0.00,,,0.00,Wunderground v.1.15,2013-05-31 08:15:00,
2013-05-31 04:25:00,70.1,68.0,30.06,NE,40,0.0,0.0,93,0.00,,,0.00,Wunderground v.1.15,2013-05-31 08:25:00,
2013-05-31 04:30:00,70.0,67.9,30.07,NE,40,0.0,0.0,93,0.00,,,0.00,Wunderground v.1.15,2013-05-31 08:30:00,
2013-05-31 04:40:00,69.7,67.6,30.07,NE,40,0.0,0.0,93,0.00,,,0.00,Wunderground v.1.15,2013-05-31 08:40:00,
2013-05-31 04:50:00,69.6,67.8,30.06,East,92,0.0,0.0,94,0.00,,,0.00,Wunderground v.1.15,2013-05-31 08:50:00,
2013-05-31 04:55:00,69.5,67.7,30.06,ESE,111,0.0,0.0,94,0.00,,,0.00,Wunderground v.1.15,2013-05-31 08:55:00,
2013-05-31 05:00:00,69.5,67.7,30.06,NNE,28,0.0,0.0,94,0.00,,,0.00,Wunderground v.1.15,2013-05-31 09:00:00,
2013-05-31 05:10:00,69.4,67.6,30.06,ENE,65,0.0,0.0,94,0.00,,,0.00,Wunderground v.1.15,2013-05-31 09:10:00,
2013-05-31 05:20:00,69.5,67.7,30.06,NE,54,0.0,0.0,94,0.00,,,0.00,Wunderground v.1.15,2013-05-31 09:20:00,
2013-05-31 05:30:00,69.6,67.8,30.06,East,82,0.0,0.0,94,0.00,,,0.00,Wunderground v.1.15,2013-05-31 09:30:00,
2013-05-31 05:35:00,69.7,67.9,30.06,NE,41,0.0,0.0,94,0.00,,,0.00,Wunderground v.1.15,2013-05-31 09:35:00,
2013-05-31 05:45:00,69.8,68.0,30.06,NE,41,0.0,0.0,94,0.00,,,0.00,Wunderground v.1.15,2013-05-31 09:45:00,
2013-05-31 05:55:00,69.9,68.1,30.07,NNE,19,0.0,0.0,94,0.00,,,0.00,Wunderground v.1.15,2013-05-31 09:55:00,
2013-05-31 08:55:00,78.4,72.1,30.09,ESE,108,2.0,3.0,81,0.00,,,0.00,Wunderground v.1.15,2013-05-31 12:55:00,
2013-05-31 09:05:00,79.2,72.5,30.09,NE,44,2.0,3.0,80,0.00,,,0.00,Wunderground v.1.15,2013-05-31 13:05:00,
2013-05-31 09:10:00,79.3,72.2,30.09,East,97,2.0,3.0,79,0.00,,,0.00,Wunderground v.1.15,2013-05-31 13:10:00,
2013-05-31 13:00:00,85.8,73.1,30.09,NE,56,3.0,4.0,66,0.00,,,0.01,Wunderground v.1.15,2013-05-31 17:00:00,
2013-05-31 13:10:00,85.6,72.9,30.09,SE,128,4.0,4.0,66,0.00,,,0.01,Wunderground v.1.15,2013-05-31 17:10:00,
2013-05-31 13:15:00,85.2,73.9,30.09,NW,326,4.0,4.0,69,0.00,,,0.01,Wunderground v.1.15,2013-05-31 17:15:00,
2013-05-31 13:25:00,85.6,73.8,30.09,ENE,63,2.0,3.0,68,0.00,,,0.01,Wunderground v.1.15,2013-05-31 17:25:00,
2013-05-31 13:30:00,85.2,73.4,30.09,ESE,110,2.0,2.0,68,0.00,,,0.01,Wunderground v.1.15,2013-05-31 17:30:00,
2013-05-31 13:35:00,84.9,73.6,30.09,North,351,2.0,2.0,69,0.00,,,0.01,Wunderground v.1.15,2013-05-31 17:35:00,
2013-05-31 13:40:00,84.4,73.5,30.09,East,80,2.0,3.0,70,0.00,,,0.01,Wunderground v.1.15,2013-05-31 17:40:00,
2013-05-31 13:50:00,81.7,75.3,30.09,ENE,71,2.0,2.0,81,0.00,,,0.01,Wunderground v.1.15,2013-05-31 17:50:00,
2013-05-31 13:55:00,80.7,75.1,30.09,ESE,111,1.0,2.0,83,0.86,,,0.05,Wunderground v.1.15,2013-05-31 17:55:00,
2013-05-31 14:05:00,78.7,73.5,30.09,SE,130,2.0,6.0,84,0.06,,,0.05,Wunderground v.1.15,2013-05-31 18:05:00,
2013-05-31 14:10:00,78.0,73.1,30.09,SW,217,3.0,3.0,85,0.04,,,0.05,Wunderground v.1.15,2013-05-31 18:10:00,
2013-05-31 14:20:00,78.1,74.3,30.08,East,92,1.0,1.0,88,0.00,,,0.05,Wunderground v.1.15,2013-05-31 18:20:00,
2013-05-31 14:30:00,79.0,73.4,30.08,NE,49,3.0,5.0,83,0.00,,,0.05,Wunderground v.1.15,2013-05-31 18:30:00,
2013-05-31 14:35:00,79.1,73.8,30.08,NE,38,3.0,5.0,84,0.00,,,0.05,Wunderground v.1.15,2013-05-31 18:35:00,
2013-05-31 14:45:00,80.3,73.9,30.08,North,355,3.0,3.0,81,0.00,,,0.05,Wunderground v.1.15,2013-05-31 18:45:00,
2013-05-31 14:50:00,81.0,73.5,30.08,ENE,77,4.0,4.0,78,0.00,,,0.05,Wunderground v.1.15,2013-05-31 18:50:00,
2013-05-31 15:00:00,81.0,73.5,30.08,NE,53,4.0,4.0,78,0.00,,,0.05,Wunderground v.1.15,2013-05-31 19:00:00,
2013-05-31 15:10:00,81.4,73.5,30.07,NNE,26,3.0,3.0,77,0.00,,,0.05,Wunderground v.1.15,2013-05-31 19:10:00,
2013-05-31 15:15:00,81.3,73.4,30.07,WSW,242,3.0,4.0,77,0.00,,,0.05,Wunderground v.1.15,2013-05-31 19:15:00,
2013-05-31 15:25:00,81.0,71.5,30.06,ENE,65,3.0,3.0,73,0.00,,,0.05,Wunderground v.1.15,2013-05-31 19:25:00,
2013-05-31 15:30:00,81.6,72.1,30.06,South,184,3.0,7.0,73,0.00,,,0.05,Wunderground v.1.15,2013-05-31 19:30:00,
2013-05-31 15:40:00,83.7,72.9,30.06,NNW,348,3.0,3.0,70,0.00,,,0.05,Wunderground v.1.15,2013-05-31 19:40:00,
2013-05-31 15:45:00,83.9,72.6,30.06,WSW,254,3.0,3.0,69,0.00,,,0.05,Wunderground v.1.15,2013-05-31 19:45:00,
2013-05-31 15:55:00,83.4,73.4,30.06,East,82,3.0,8.0,72,0.00,,,0.05,Wunderground v.1.15,2013-05-31 19:55:00,
2013-05-31 16:00:00,83.0,71.8,30.06,North,5,4.0,4.0,69,0.00,,,0.05,Wunderground v.1.15,2013-05-31 20:00:00,
2013-05-31 16:10:00,82.2,71.9,30.06,East,96,3.0,3.0,71,0.00,,,0.05,Wunderground v.1.15,2013-05-31 20:10:00,
2013-05-31 16:15:00,81.9,72.0,30.06,SE,141,2.0,4.0,72,0.00,,,0.05,Wunderground v.1.15,2013-05-31 20:15:00,
2013-05-31 16:25:00,81.6,72.5,30.06,NE,40,2.0,2.0,74,0.00,,,0.05,Wunderground v.1.15,2013-05-31 20:25:00,
2013-05-31 16:30:00,81.7,72.6,30.05,East,80,2.0,2.0,74,0.00,,,0.05,Wunderground v.1.15,2013-05-31 20:30:00,
2013-05-31 16:35:00,81.7,72.6,30.05,SE,130,2.0,2.0,74,0.00,,,0.05,Wunderground v.1.15,2013-05-31 20:35:00,
2013-05-31 16:45:00,81.5,72.8,30.05,NNW,346,2.0,3.0,75,0.00,,,0.05,Wunderground v.1.15,2013-05-31 20:45:00,
2013-05-31 16:50:00,81.5,72.8,30.05,South,169,2.0,3.0,75,0.00,,,0.05,Wunderground v.1.15,2013-05-31 20:50:00,
2013-05-31 16:55:00,81.5,72.8,30.05,NW,315,2.0,2.0,75,0.00,,,0.05,Wunderground v.1.15,2013-05-31 20:55:00,
2013-05-31 17:05:00,81.9,73.2,30.04,East,88,3.0,3.0,75,0.00,,,0.05,Wunderground v.1.15,2013-05-31 21:05:00,
2013-05-31 17:15:00,82.6,73.5,30.04,NE,44,3.0,3.0,74,0.00,,,0.05,Wunderground v.1.15,2013-05-31 21:15:00,
2013-05-31 17:20:00,82.3,73.6,30.04,ENE,76,2.0,2.0,75,0.00,,,0.05,Wunderground v.1.15,2013-05-31 21:20:00,
2013-05-31 17:30:00,82.0,72.5,30.03,ESE,108,2.0,3.0,73,0.00,,,0.05,Wunderground v.1.15,2013-05-31 21:30:00,
2013-05-31 17:35:00,82.1,72.6,30.03,North,355,2.0,3.0,73,0.00,,,0.05,Wunderground v.1.15,2013-05-31 21:35:00,
2013-05-31 17:40:00,82.5,73.0,30.03,East,94,2.0,8.0,73,0.00,,,0.05,Wunderground v.1.15,2013-05-31 21:40:00,
2013-05-31 17:50:00,82.9,71.7,30.03,SSE,163,3.0,3.0,69,0.00,,,0.05,Wunderground v.1.15,2013-05-31 21:50:00,
2013-05-31 17:55:00,82.4,71.6,30.03,SSE,155,2.0,3.0,70,0.00,,,0.05,Wunderground v.1.15,2013-05-31 21:55:00,
2013-05-31 18:05:00,82.6,71.4,30.03,North,360,2.0,4.0,69,0.00,,,0.05,Wunderground v.1.15,2013-05-31 22:05:00,
2013-05-31 18:10:00,82.9,70.8,30.03,SE,124,3.0,3.0,67,0.00,,,0.05,Wunderground v.1.15,2013-05-31 22:10:00,
2013-05-31 18:20:00,82.6,71.0,30.03,East,82,2.0,2.0,68,0.00,,,0.05,Wunderground v.1.15,2013-05-31 22:20:00,
2013-05-31 18:25:00,82.9,71.3,30.03,NE,51,2.0,2.0,68,0.00,,,0.05,Wunderground v.1.15,2013-05-31 22:25:00,
2013-05-31 18:35:00,83.1,71.4,30.03,NNW,334,2.0,3.0,68,0.00,,,0.05,Wunderground v.1.15,2013-05-31 22:35:00,
2013-05-31 18:45:00,82.8,70.7,30.04,ESE,109,2.0,3.0,67,0.00,,,0.05,Wunderground v.1.15,2013-05-31 22:45:00,
2013-05-31 18:50:00,82.8,70.7,30.04,East,80,2.0,3.0,67,0.00,,,0.05,Wunderground v.1.15,2013-05-31 22:50:00,
2013-05-31 18:55:00,82.7,70.6,30.04,North,5,3.0,3.0,67,0.00,,,0.05,Wunderground v.1.15,2013-05-31 22:55:00,
2013-05-31 19:05:00,82.4,70.8,30.04,NE,36,2.0,7.0,68,0.00,,,0.05,Wunderground v.1.15,2013-05-31 23:05:00,
2013-05-31 19:10:00,82.3,70.7,30.04,ESE,103,2.0,5.0,68,0.00,,,0.05,Wunderground v.1.15,2013-05-31 23:10:00,
2013-05-31 19:15:00,82.0,70.4,30.04,SE,128,3.0,5.0,68,0.00,,,0.05,Wunderground v.1.15,2013-05-31 23:15:00,
2013-05-31 19:25:00,81.7,70.1,30.04,West,276,2.0,3.0,68,0.00,,,0.05,Wunderground v.1.15,2013-05-31 23:25:00,
2013-05-31 19:35:00,81.3,70.2,30.04,NW,316,2.0,4.0,69,0.00,,,0.05,Wunderground v.1.15,2013-05-31 23:35:00,
2013-05-31 19:40:00,81.1,70.0,30.05,North,5,2.0,3.0,69,0.00,,,0.05,Wunderground v.1.15,2013-05-31 23:40:00,
2013-05-31 19:50:00,80.8,70.1,30.05,NW,313,2.0,3.0,70,0.00,,,0.05,Wunderground v.1.15,2013-05-31 23:50:00,
2013-05-31 20:00:00,80.4,70.1,30.05,North,355,2.0,4.0,71,0.00,,,0.05,Wunderground v.1.15,2013-06-01 00:00:00,
2013-05-31 20:05:00,80.2,69.9,30.05,ESE,120,2.0,4.0,71,0.00,,,0.05,Wunderground v.1.15,2013-06-01 00:05:00,
2013-05-31 20:15:00,79.8,70.0,30.06,NNW,339,2.0,4.0,72,0.00,,,0.05,Wunderground v.1.15,2013-06-01 00:15:00,
2013-05-31 20:20:00,79.6,69.8,30.05,NE,49,2.0,2.0,72,0.00,,,0.05,Wunderground v.1.15,2013-06-01 00:20:00,
2013-05-31 20:30:00,79.2,69.4,30.06,NE,55,2.0,2.0,72,0.00,,,0.05,Wunderground v.1.15,2013-06-01 00:30:00,
2013-05-31 20:40:00,78.8,69.4,30.06,NNW,337,2.0,2.0,73,0.00,,,0.05,Wunderground v.1.15,2013-06-01 00:40:00,
2013-05-31 20:45:00,78.7,69.7,30.06,NE,55,1.0,3.0,74,0.00,,,0.05,Wunderground v.1.15,2013-06-01 00:45:00,
2013-05-31 20:55:00,78.3,69.7,30.06,ESE,111,1.0,4.0,75,0.00,,,0.05,Wunderground v.1.15,2013-06-01 00:55:00,
2013-05-31 21:00:00,78.1,69.9,30.06,NNE,24,2.0,2.0,76,0.00,,,0.05,Wunderground v.1.15,2013-06-01 01:00:00,
2013-05-31 21:10:00,77.8,70.0,30.07,East,88,1.0,1.0,77,0.00,,,0.05,Wunderground v.1.15,2013-06-01 01:10:00,
2013-05-31 21:15:00,77.7,69.9,30.07,SE,132,2.0,2.0,77,0.00,,,0.05,Wunderground v.1.15,2013-06-01 01:15:00,
2013-05-31 21:25:00,77.4,70.0,30.08,SSE,148,1.0,1.0,78,0.00,,,0.05,Wunderground v.1.15,2013-06-01 01:25:00,
2013-05-31 21:30:00,77.3,69.9,30.07,North,360,1.0,3.0,78,0.00,,,0.05,Wunderground v.1.15,2013-06-01 01:30:00,
2013-05-31 21:35:00,77.2,69.8,30.07,NNE,26,2.0,3.0,78,0.00,,,0.05,Wunderground v.1.15,2013-06-01 01:35:00,
2013-05-31 21:45:00,77.0,70.0,30.08,NNE,33,1.0,2.0,79,0.00,,,0.05,Wunderground v.1.15,2013-06-01 01:45:00,
2013-05-31 21:55:00,76.7,70.1,30.08,NE,36,1.0,1.0,80,0.00,,,0.05,Wunderground v.1.15,2013-06-01 01:55:00,
2013-05-31 22:00:00,76.6,70.0,30.08,NNE,16,1.0,1.0,80,0.00,,,0.05,Wunderground v.1.15,2013-06-01 02:00:00,
2013-05-31 22:10:00,76.4,70.1,30.09,ENE,61,1.0,1.0,81,0.00,,,0.05,Wunderground v.1.15,2013-06-01 02:10:00,
2013-05-31 22:15:00,76.3,70.0,30.09,ENE,67,1.0,1.0,81,0.00,,,0.05,Wunderground v.1.15,2013-06-01 02:15:00,
2013-05-31 22:25:00,76.1,70.2,30.09,East,93,1.0,1.0,82,0.00,,,0.05,Wunderground v.1.15,2013-06-01 02:25:00,
2013-05-31 22:30:00,76.0,70.1,30.09,SE,128,1.0,1.0,82,0.00,,,0.05,Wunderground v.1.15,2013-06-01 02:30:00,
2013-05-31 22:40:00,75.8,70.3,30.09,SSE,159,0.0,0.0,83,0.00,,,0.05,Wunderground v.1.15,2013-06-01 02:40:00,
2013-05-31 22:45:00,75.7,70.2,30.09,SE,132,0.0,1.0,83,0.00,,,0.05,Wunderground v.1.15,2013-06-01 02:45:00,
2013-05-31 22:55:00,75.5,70.3,30.09,NE,35,1.0,1.0,84,0.00,,,0.05,Wunderground v.1.15,2013-06-01 02:55:00,
2013-05-31 23:05:00,75.2,70.4,30.08,East,98,1.0,3.0,85,0.00,,,0.05,Wunderground v.1.15,2013-06-01 03:05:00,
2013-05-31 23:10:00,75.2,70.4,30.08,East,80,1.0,1.0,85,0.00,,,0.05,Wunderground v.1.15,2013-06-01 03:10:00,
2013-05-31 23:15:00,75.1,70.3,30.08,NE,53,1.0,1.0,85,0.00,,,0.05,Wunderground v.1.15,2013-06-01 03:15:00,
2013-05-31 23:25:00,74.8,70.3,30.08,ENE,58,0.0,0.0,86,0.00,,,0.05,Wunderground v.1.15,2013-06-01 03:25:00,
2013-05-31 23:35:00,74.5,70.4,30.08,NNE,19,0.0,1.0,87,0.00,,,0.05,Wunderground v.1.15,2013-06-01 03:35:00,
2013-05-31 23:40:00,74.4,70.3,30.08,NNE,20,0.0,0.0,87,0.00,,,0.05,Wunderground v.1.15,2013-06-01 03:40:00,
2013-05-31 23:45:00,74.2,70.1,30.08,NNE,20,0.0,0.0,87,0.00,,,0.05,Wunderground v.1.15,2013-06-01 03:45:00,
2013-05-31 23:55:00,73.9,70.1,30.08,NNE,20,0.0,0.0,88,0.00,,,0.05,Wunderground v.1.15,2013-06-01 03:55:00,